CXA8017 ZSAM-ZSFZ

Flight info

Callsign CXA8017
Flight time N/A
Altitude 34100
Route FOC
Aircraft B738/M-SDE2E3FGHIRWXY/LB1

Departure

Time N/A
Airport Xiamen Gaoqi International Airport (ZSAM)

Arrival

Time 2026-04-22 08:33
Airport Fuzhou Changle International Airport (ZSFZ)
Time Latitude Longitude Altitude Speed Heading
2026-04-22 08:17 25.83912 119.65231 26468 ft 509 kts 126°
2026-04-22 08:17 25.81991 119.68548 25134 ft 512 kts 125°
2026-04-22 08:18 25.80351 119.72021 24100 ft 509 kts 111°
2026-04-22 08:18 25.79526 119.75775 23362 ft 498 kts 96°
2026-04-22 08:18 25.79550 119.79541 22293 ft 493 kts 79°
2026-04-22 08:18 25.80481 119.83121 21462 ft 480 kts 63°
2026-04-22 08:19 25.82226 119.86235 20629 ft 463 kts 45°
2026-04-22 08:19 25.84545 119.88589 19615 ft 452 kts 29°
2026-04-22 08:19 25.87304 119.90060 18704 ft 435 kts 11°
2026-04-22 08:19 25.90224 119.90549 17786 ft 418 kts 354°
2026-04-22 08:20 25.93019 119.90058 16825 ft 402 kts 336°
2026-04-22 08:20 25.95562 119.88892 15913 ft 392 kts 328°
2026-04-22 08:20 25.97927 119.87505 15030 ft 385 kts 326°
2026-04-22 08:20 26.00248 119.86063 14126 ft 380 kts 325°
2026-04-22 08:21 26.02550 119.84621 13182 ft 377 kts 325°
2026-04-22 08:21 26.04807 119.83213 12353 ft 372 kts 325°
2026-04-22 08:21 26.06962 119.81704 11522 ft 360 kts 315°
2026-04-22 08:21 26.08568 119.79711 11018 ft 336 kts 300°
2026-04-22 08:22 26.09790 119.77550 10583 ft 319 kts 296°
2026-04-22 08:22 26.10846 119.75481 10256 ft 302 kts 295°
2026-04-22 08:22 26.11860 119.73480 9910 ft 289 kts 295°
2026-04-22 08:22 26.12826 119.71592 9762 ft 270 kts 295°
2026-04-22 08:23 26.13732 119.69843 9633 ft 256 kts 295°
2026-04-22 08:23 26.14629 119.68115 8837 ft 266 kts 295°
2026-04-22 08:23 26.15548 119.66335 8226 ft 266 kts 295°
2026-04-22 08:23 26.16464 119.64563 7615 ft 267 kts 297°
2026-04-22 08:24 26.17625 119.62940 7019 ft 275 kts 316°
2026-04-22 08:24 26.19350 119.61954 6421 ft 287 kts 342°
2026-04-22 08:24 26.21385 119.61907 5847 ft 296 kts 10°
2026-04-22 08:24 26.23250 119.62839 5316 ft 300 kts 37°
2026-04-22 08:25 26.24599 119.64573 4806 ft 298 kts 64°
2026-04-22 08:25 26.25143 119.66747 4312 ft 289 kts 93°
2026-04-22 08:25 26.24767 119.68845 4077 ft 266 kts 121°
2026-04-22 08:25 26.23790 119.70487 3921 ft 247 kts 134°
2026-04-22 08:26 26.22726 119.71919 3856 ft 231 kts 135°
2026-04-22 08:26 26.21711 119.73278 3859 ft 227 kts 135°
2026-04-22 08:26 26.20687 119.74639 3874 ft 233 kts 135°
2026-04-22 08:26 26.19583 119.75978 3858 ft 231 kts 149°
2026-04-22 08:27 26.18177 119.76690 3871 ft 218 kts 173°
2026-04-22 08:27 26.16673 119.76988 3865 ft 218 kts 176°
2026-04-22 08:27 26.15198 119.77283 3798 ft 214 kts 175°
2026-04-22 08:27 26.13759 119.77341 3665 ft 193 kts 195°
2026-04-22 08:28 26.12534 119.76898 3391 ft 184 kts 206°
2026-04-22 08:28 26.11416 119.76341 3267 ft 168 kts 207°
2026-04-22 08:28 26.10365 119.75788 2929 ft 167 kts 208°
2026-04-22 08:28 26.09326 119.75220 2595 ft 166 kts 208°
2026-04-22 08:29 26.08280 119.74637 2243 ft 166 kts 207°
2026-04-22 08:29 26.07268 119.74074 1978 ft 162 kts 206°
2026-04-22 08:29 26.06274 119.73519 1937 ft 155 kts 207°
2026-04-22 08:29 26.05315 119.72980 1964 ft 150 kts 206°
2026-04-22 08:30 26.04401 119.72469 1953 ft 147 kts 206°
2026-04-22 08:30 26.03492 119.71958 1946 ft 140 kts 206°
2026-04-22 08:30 26.02602 119.71459 1701 ft 142 kts 207°
2026-04-22 08:30 26.01755 119.70984 1494 ft 131 kts 207°
2026-04-22 08:31 26.00940 119.70527 1353 ft 132 kts 208°
2026-04-22 08:31 26.00107 119.70055 1172 ft 138 kts 208°
2026-04-22 08:31 25.98364 119.69093 814 ft 139 kts 207°
2026-04-22 08:32 25.97480 119.68586 626 ft 141 kts 208°
2026-04-22 08:32 25.96595 119.68078 445 ft 142 kts 206°
2026-04-22 08:32 25.95699 119.67588 284 ft 143 kts 206°
2026-04-22 08:32 25.94791 119.67078 100 ft 147 kts 207°
2026-04-22 08:33 25.93950 119.66608 55 ft 122 kts 208°
2026-04-22 08:33 25.93399 119.66297 56 ft 54 kts 208°
2026-04-22 08:33 25.93177 119.66171 56 ft 29 kts 207°
2026-04-22 08:33 25.93009 119.66094 56 ft 23 kts 192°
2026-04-22 08:34 25.92895 119.66082 56 ft 11 kts 180°
2026-04-22 08:34 25.92822 119.66085 56 ft 9 kts 177°
2026-04-22 08:34 25.92764 119.66105 56 ft 8 kts 125°
2026-04-22 08:34 25.92764 119.66157 56 ft 6 kts 52°
2026-04-22 08:35 25.92799 119.66183 56 ft 5 kts 28°
2026-04-22 08:35 25.92829 119.66201 56 ft 4 kts 28°
2026-04-22 08:35 25.92856 119.66217 56 ft 4 kts 28°
2026-04-22 08:35 25.92893 119.66238 56 ft 9 kts 27°
2026-04-22 08:36 25.92964 119.66278 56 ft 10 kts 41°
2026-04-22 08:36 25.92964 119.66349 56 ft 8 kts 124°
2026-04-22 08:36 25.92919 119.66386 56 ft 7 kts 146°
2026-04-22 08:36 25.92882 119.66416 56 ft 5 kts 142°
2026-04-22 08:37 25.92855 119.66441 56 ft 4 kts 142°
2026-04-22 08:37 25.92836 119.66456 56 ft 1 kts 142°
2026-04-22 08:37 25.92832 119.66460 56 ft 0 kts 142°